EW5738 Weather Reports


Display with metric or nautical units.
time (UTC)temp
F
wind
direction
speed
MPH
gust
MPH
rain 1hr
in
rain 24hr
in
rain mn
in
humidity
%
barometer
mb
20260510173030 64 167 1.0 7.0 0.00 0.00 0.00 81 1026.3
20260510171529 64 215 2.0 5.0 0.00 0.00 0.00 80 1026.3
20260510170024 64 183 2.0 5.0 0.00 0.00 0.00 78 1026.6
20260510164521 65 152 0.0 3.0 0.00 0.00 0.00 77 1026.8
20260510163020 65 269 1.0 5.0 0.00 0.00 0.00 76 1026.9
20260510161519 65 190 1.0 4.0 0.00 0.00 0.00 75 1026.9
20260510160017 65 162 2.0 7.0 0.00 0.00 0.00 74 1026.9
20260510154519 65 89 2.0 6.0 0.00 0.00 0.00 74 1027.0
20260510153015 65 253 1.0 3.0 0.00 0.00 0.00 75 1027.4
20260510151511 66 269 2.0 5.0 0.00 0.00 0.00 74 1027.4
20260510150113 66 178 2.0 5.0 0.00 0.00 0.00 74 1027.5
20260510144510 65 284 1.0 4.0 0.00 0.00 0.00 77 1027.5
20260510143007 65 178 0.0 3.0 0.00 0.00 0.00 78 1027.6
20260510141506 66 211 1.0 5.0 0.00 0.00 0.00 77 1027.6
20260510140003 66 178 1.0 3.0 0.00 0.00 0.00 76 1027.6
20260510134502 65 170 0.0 4.0 0.00 0.00 0.00 75 1027.7
20260510133000 66 231 1.0 5.0 0.00 0.00 0.00 74 1027.6
20260510131601 66 129 2.0 9.0 0.00 0.00 0.00 74 1027.9
20260510130100 66 167 3.0 6.0 0.00 0.00 0.00 73 1027.8
20260510124605 66 172 2.0 7.0 0.00 0.00 0.00 73 1028.0
20260510123058 66 156 1.0 7.0 0.00 0.00 0.00 74 1028.1
20260510121558 65 117 2.0 7.0 0.00 0.00 0.00 75 1028.0
20260510120058 65 231 2.0 8.0 0.00 0.00 0.00 75 1028.1
20260510114557 66 210 1.0 7.0 0.00 0.00 0.00 75 1028.3
20260510113056 66 196 3.0 6.0 0.00 0.00 0.00 75 1028.7
20260510111605 66 178 3.0 6.0 0.00 0.00 0.00 75 1028.5
20260510110059 66 336 0.0 4.0 0.00 0.00 0.00 75 1028.5
20260510104610 66 178 0.0 5.0 0.00 0.00 0.00 78 1028.3
20260510103050 66 211 2.0 5.0 0.00 0.00 0.00 78 1028.1
20260510101547 66 213 1.0 4.0 0.00 0.00 0.00 79 1027.9
20260510100047 65 295 0.0 4.0 0.00 0.00 0.00 79 1027.7
20260510094546 66 218 2.0 6.0 0.00 0.00 0.00 80 1027.7
20260510093044 67 184 2.0 5.0 0.00 0.00 0.00 78 1027.2
20260510091543 67 178 0.0 4.0 0.00 0.00 0.00 77 1027.0
20260510090043 68 178 2.0 6.0 0.00 0.00 0.00 76 1027.2
20260510084543 68 138 2.0 4.0 0.00 0.00 0.00 75 1027.2
20260510083042 69 203 2.0 8.0 0.00 0.00 0.00 74 1027.2
20260510081545 69 127 3.0 8.0 0.00 0.00 0.00 73 1026.8
20260510080141 69 155 3.0 8.0 0.00 0.00 0.00 72 1026.9
20260510074540 70 126 4.0 10.0 0.00 0.00 0.00 71 1026.7
20260510073038 70 123 4.0 9.0 0.00 0.00 0.00 71 1026.5
20260510071538 70 130 2.0 8.0 0.00 0.00 0.00 70 1026.3
20260510070039 71 122 5.0 11.0 0.00 0.00 0.00 69 1026.1
20260510064636 71 135 4.0 14.0 0.00 0.00 0.00 70 1026.0
20260510063034 72 83 4.0 11.0 0.00 0.00 0.00 70 1025.7
20260510061537 72 178 3.0 9.0 0.00 0.00 0.00 68 1025.5
20260510060045 73 132 6.0 13.0 0.00 0.00 0.00 67 1025.4
20260510054531 73 133 4.0 12.0 0.00 0.00 0.00 67 1025.2
20260510053031 74 117 4.0 11.0 0.00 0.00 0.00 66 1025.2
20260510051529 74 115 5.0 11.0 0.00 0.00 0.00 65 1025.1
20260510050032 74 76 5.0 12.0 0.00 0.00 0.00 63 1025.2
20260510044526 74 148 4.0 12.0 0.00 0.00 0.00 63 1025.3
20260510043025 75 144 3.0 9.0 0.00 0.00 0.00 64 1025.2
20260510041529 75 101 3.0 10.0 0.00 0.00 0.00 63 1025.1
20260510040024 75 96 5.0 12.0 0.00 0.00 0.00 63 1025.2
20260510034521 75 168 4.0 10.0 0.00 0.00 0.00 63 1025.2
20260510033019 75 112 6.0 13.0 0.00 0.00 0.00 64 1025.2
20260510031518 75 210 2.0 7.0 0.00 0.00 0.00 65 1025.2
20260510030016 75 174 3.0 10.0 0.00 0.00 0.00 65 1025.4
20260510024514 77 163 2.0 11.0 0.00 0.00 0.00 63 1025.6
20260510023029 76 126 4.0 13.0 0.00 0.00 0.00 62 1025.7
20260510021507 75 137 4.0 9.0 0.00 0.00 0.00 64 1025.7
20260510020005 74 172 5.0 13.0 0.00 0.00 0.00 65 1025.9
20260510014501 74 132 5.0 12.0 0.00 0.00 0.00 65 1026.3
20260510013057 72 167 4.0 11.0 0.00 0.00 0.00 67 1026.7
20260510011611 72 212 5.0 12.0 0.00 0.00 0.00 67 1026.9
20260510010105 72 181 4.0 10.0 0.00 0.00 0.00 68 1027.1
20260510004550 71 190 2.0 8.0 0.00 0.00 0.00 69 1027.3
20260510003047 70 200 1.0 8.0 0.00 0.00 0.00 69 1027.5
20260510001546 70 197 4.0 9.0 0.00 0.00 0.00 69 1027.6
20260510000048 70 190 4.0 7.0 0.00 0.00 0.00 71 1027.7
20260509234540 69 286 2.0 8.0 0.00 0.00 0.00 72 1027.7
20260509233035 68 207 2.0 7.0 0.00 0.00 0.00 71 1027.7
20260509231531 67 167 1.0 10.0 0.00 0.00 0.00 72 1027.6
20260509230027 66 114 2.0 10.0 0.00 0.00 0.00 74 1027.3
20260509224525 65 167 5.0 8.0 0.00 0.00 0.00 73 1027.1
20260509223025 65 178 1.0 10.0 0.00 0.00 0.00 74 1027.0
20260509221518 64 51 3.0 11.0 0.00 0.00 0.00 75 1026.9
20260509220016 63 206 1.0 6.0 0.00 0.00 0.00 76 1026.7
20260509214511 62 140 2.0 4.0 0.00 0.00 0.00 78 1026.6
20260509213006 60 46 1.0 3.0 0.00 0.00 0.00 79 1026.4
20260509211502 59 89 0.0 5.0 0.00 0.00 0.00 82 1026.4
20260509204603 56 142 2.0 4.0 0.00 0.00 0.00 85 1025.7
20260509203059 55 286 1.0 3.0 0.00 0.00 0.00 86 1025.6
20260509201552 55 219 2.0 5.0 0.00 0.00 0.00 86 1025.4
20260509200051 55 187 3.0 5.0 0.00 0.00 0.00 84 1025.3
20260509194550 56 178 1.0 3.0 0.00 0.00 0.00 82 1025.3
20260509193047 56 234 1.0 3.0 0.00 0.00 0.00 83 1025.3
20260509191546 55 20 1.0 3.0 0.00 0.00 0.00 85 1025.0
20260509190049 56 166 1.0 4.0 0.00 0.00 0.00 84 1024.9
20260509184547 56 156 1.0 4.0 0.00 0.00 0.00 84 1024.7
20260509183044 56 46 0.0 3.0 0.00 0.00 0.00 83 1024.7
20260509181545 56 321 1.0 2.0 0.00 0.00 0.00 84 1024.7
20260509180042 55 283 2.0 4.0 0.00 0.00 0.00 85 1024.6
20260509174640 56 286 2.0 4.0 0.00 0.00 0.00 85 1024.6